Weather History for Elmendorf AFB, AK

Change the Weather History Date:

Monday, October 1, 2012

  Actual Average Record
Temperature  
Mean Temperature 36 °F -  
Max Temperature 47 °F 49 °F 64 °F (2003)
Min Temperature 26 °F 37 °F 21 °F (2000)
Degree Days  
Heating Degree Days 29    
Moisture  
Dew Point 25 °F    
Average Humidity 62    
Maximum Humidity 84    
Minimum Humidity 42    
Precipitation  
Precipitation 0.00 in - - ()
Sea Level Pressure  
Sea Level Pressure 30.25 in    
Wind  
Wind Speed 2 mph (NNE)    
Max Wind Speed 7 mph    
Max Gust Speed -    
Visibility 10 miles    
Events      
Averages and records for this station are not official NWS values.
T = Trace of Precipitation, MM = Missing Value Source: NWS Daily Summary

Daily Weather History Graph

Daily Weather History Graph

Search for Another Location

Airport:

Trip Planner

Search our weather history database for the weather conditions in past years. The results will help you decide how hot, cold, wet, or windy it might be!

Date:

Astronomy

Oct. 01, 2012 Rise Set
Actual Time 8:07 AM AKDT 7:28 PM AKDT
Civil Twilight 7:24 AM AKDT 8:11 PM AKDT
Nautical Twilight 6:33 AM AKDT 9:01 PM AKDT
Astronomical Twilight 5:39 AM AKDT 9:55 PM AKDT
Moon 7:21 PM AKDT (10/1) 10:31 AM AKDT (10/1)
Length of Visible Light 12h 46m
Length of Day
11h 20m
Full, 97% of the Moon is Illuminated
Oct 1
Full
Oct 7
Last Quarter
Oct 15
New
Oct 21
First Quarter
Oct 29
Full

Hourly Weather History & Observations

Time (AKDT) Temp. Windchill Dew Point Humidity Pressure Visibility Wind Dir Wind Speed Gust Speed Precip Events Conditions
12:55 AM 30.0 °F - 24.3 °F 79% 30.10 in 10.0 mi Calm Calm - N/A   Clear
1:55 AM 29.1 °F - 23.4 °F 79% 30.11 in 10.0 mi Calm Calm - N/A   Clear
2:55 AM 29.1 °F - 22.8 °F 77% 30.12 in 10.0 mi Calm Calm - N/A   Clear
3:55 AM 28.8 °F - 22.8 °F 78% 30.13 in 10.0 mi Calm Calm - N/A   Clear
4:55 AM 29.1 °F - 22.6 °F 77% 30.15 in 10.0 mi Calm Calm - N/A   Clear
5:55 AM 26.8 °F - 22.5 °F 84% 30.17 in 10.0 mi Calm Calm - N/A   Clear
6:55 AM 28.6 °F 24.8 °F 21.9 °F 76% 30.19 in 10.0 mi NE 3.5 mph - N/A   Clear
7:55 AM 29.5 °F 23.4 °F 22.1 °F 74% 30.20 in 10.0 mi NE 5.8 mph - N/A   Clear
8:55 AM 28.6 °F 22.4 °F 22.6 °F 78% 30.22 in 10.0 mi NE 5.8 mph - N/A   Clear
9:55 AM 34.3 °F 29.2 °F 25.0 °F 69% 30.24 in 10.0 mi NE 5.8 mph - N/A   Clear
10:55 AM 38.5 °F - 26.4 °F 62% 30.25 in 10.0 mi Calm Calm - N/A   Clear
11:55 AM 42.1 °F - 28.2 °F 58% 30.27 in 10.0 mi Calm Calm - N/A   Clear
12:55 PM 44.2 °F 41.8 °F 29.7 °F 57% 30.28 in 10.0 mi NNW 4.6 mph - N/A   Clear
1:55 PM 43.7 °F 40.3 °F 29.7 °F 58% 30.30 in 10.0 mi NNW 5.8 mph - N/A   Clear
2:55 PM 45.7 °F 42.7 °F 27.9 °F 50% 30.30 in 10.0 mi NNW 5.8 mph - N/A   Clear
3:55 PM 44.8 °F 41.6 °F 28.2 °F 52% 30.31 in 10.0 mi NW 5.8 mph - N/A   Clear
4:55 PM 46.2 °F 42.7 °F 25.3 °F 44% 30.32 in 10.0 mi ENE 6.9 mph - N/A   Clear
5:55 PM 45.0 °F 42.6 °F 23.9 °F 44% 30.32 in 10.0 mi NE 4.6 mph - N/A   Clear
6:55 PM 43.3 °F 40.7 °F 23.7 °F 46% 30.33 in 10.0 mi NNE 4.6 mph - N/A   Overcast
7:55 PM 42.8 °F 39.3 °F 21.0 °F 42% 30.35 in 10.0 mi NE 5.8 mph - N/A   Overcast
8:55 PM 42.3 °F - 23.2 °F 47% 30.35 in 10.0 mi Calm Calm - N/A   Overcast
9:55 PM 41.9 °F 40.0 °F 24.6 °F 50% 30.36 in 10.0 mi NNE 3.5 mph - N/A   Overcast
10:55 PM 41.2 °F - 25.0 °F 53% 30.37 in 10.0 mi Calm Calm - N/A   Overcast
11:55 PM 39.4 °F 36.1 °F 25.5 °F 58% 30.37 in 10.0 mi NNE 4.6 mph - N/A   Scattered Clouds